Gaosu Jiguang Zuanzhi 5

operational
NORAD ID: 62294 Int'l Des: 2024-238 Owner: CASC Country: CN
LEOCIRCULAR

Über Gaosu Jiguang Zuanzhi 5

Beschreibung wird geladen...

Live-Position

3D-Globus wird geladen...

Nächste Überflüge

Höhenverlauf

Altitude vs Time

uPlot chart will show altitude changes over time

Zweizeiliger Elementsatz

1 62294U 24238E 25340.89336630 -.00000022 00000-0 10130-3 0 9997
2 62294 59.9101 133.0164 0016644 167.5774 192.5647 13.75170760 49460
Epoch: 6. Dez. 2025 • Age: 18 hours

Aktueller Status

Höhe 969.7 km
Geschwindigkeit 7.37 km/s
Subsatellitenpunkt 6.38°N, 5.54°W
Startdatum 12. Dez. 2024
Alter 0.9 years
Typ other

Technische Details

Klassifizierung Payload
Masse 150.00 kg
Trockenmasse 150.00 kg
Gesamtmasse 150.00 kg
Länge 0.30 m
Durchmesser 0.20 m
Spannweite 3.00 m
Form Box + 2 pan
Hersteller HITSAT
Bus-Typ HarbFlat
Phasenstatus In Orbit
Besitzer/Staat CASC/CN

Große Konstellationen

Loading constellations...